Leominster, MA

4:25 AM EST on February 23, 2017 (GMT -0500)
Fitchburg Municipal

Weather History for KFIT - October, 2011

Change the Weather History Date:

Wednesday, October 26, 2011

  Actual Average (KORH) Record (KORH)
Temperature  
Mean Temperature 40 °F -  
Max Temperature 46 °F 53 °F 79 °F (1963)
Min Temperature 34 °F 38 °F 20 °F (1933)
Degree Days  
Heating Degree Days 25    
Moisture  
Dew Point 40 °F    
Average Humidity 85    
Maximum Humidity 92    
Minimum Humidity 76    
Precipitation  
Precipitation 0.03 in - - ()
Sea Level Pressure  
Sea Level Pressure 29.89 in    
Wind  
Wind Speed 0 mph (NNW)    
Max Wind Speed 6 mph    
Max Gust Speed -    
Visibility 10 miles    
Events Rain    
Averages and records for this station are not official NWS values.
T = Trace of Precipitation, MM = Missing Value Source: NWS Daily Summary

Daily Weather History Graph

Daily Weather History Graph

Search for Another Location

Airport or City:

Trip Planner

Search our weather history database for the weather conditions in past years. The results will help you decide how hot, cold, wet, or windy it might be!

Date:

Astronomy

Oct. 26, 2011 Rise Set
Actual Time 7:12 AM EDT 5:48 PM EDT
Civil Twilight 6:43 AM EDT 6:17 PM EDT
Nautical Twilight 6:10 AM EDT 6:50 PM EDT
Astronomical Twilight 5:38 AM EDT 7:22 PM EDT
Moon 6:57 AM EDT (10/26) 5:27 PM EDT (10/26)
Length of Visible Light 11h 33m
Length of Day
10h 35m
Waning Crescent, 0% of the Moon is Illuminated
Oct 26
Waning Crescent
Oct 26
New
Nov 2
First Quarter
Nov 10
Full
Nov 18
Last Quarter

Hourly Weather History & Observations

Time (EDT) Temp. Windchill Dew Point Humidity Pressure Visibility Wind Dir Wind Speed Gust Speed Precip Events Conditions
12:52 AM 35.1 °F - 32.0 °F 89% 30.03 in 10.0 mi Calm Calm - N/A   Clear
1:52 AM 34.0 °F - 32.0 °F 92% 30.03 in 10.0 mi Calm Calm - N/A   Clear
2:52 AM 35.1 °F - 32.0 °F 89% 30.01 in 10.0 mi Calm Calm - N/A   Mostly Cloudy
3:52 AM 37.9 °F - 34.0 °F 86% 30.00 in 10.0 mi Calm Calm - N/A   Partly Cloudy
4:52 AM 37.9 °F - 34.0 °F 86% 30.00 in 10.0 mi Calm Calm - N/A   Scattered Clouds
5:52 AM 39.9 °F 37.8 °F 36.0 °F 86% 29.98 in 10.0 mi NNW 3.5 mph - N/A   Overcast
6:52 AM 43.0 °F 39.5 °F 36.0 °F 76% 29.96 in 10.0 mi North 5.8 mph - N/A   Overcast
8:52 AM 44.1 °F - 39.9 °F 85% 29.99 in 10.0 mi Calm Calm - 0.01 in   Overcast
9:52 AM 45.0 °F - 39.9 °F 82% 29.95 in 10.0 mi Calm Calm - 0.00 in Rain Light Rain
10:52 AM 46.0 °F - 41.0 °F 83% 29.96 in 10.0 mi Calm Calm - 0.01 in Rain Light Rain
11:52 AM 46.0 °F - 41.0 °F 83% 29.92 in 10.0 mi Calm Calm - 0.00 in   Overcast
12:52 PM 46.0 °F - 42.1 °F 86% 29.88 in 9.0 mi Calm Calm - 0.01 in Rain Light Rain
1:52 PM 46.9 °F - 39.9 °F 77% 29.86 in 10.0 mi Calm Calm - 0.00 in   Overcast
3:52 PM 46.9 °F - 42.1 °F 83% 29.83 in 10.0 mi Calm Calm - N/A   Overcast
4:52 PM 46.9 °F - 42.1 °F 83% 29.83 in 10.0 mi Calm Calm - N/A   Overcast
5:52 PM 46.0 °F - 42.1 °F 86% 29.82 in 10.0 mi Calm Calm - N/A   Overcast
6:45 PM 46.4 °F - 42.8 °F 87% 29.82 in 10.0 mi Calm Calm - N/A   Overcast
6:52 PM 46.0 °F - 42.1 °F 86% 29.82 in 10.0 mi Calm Calm - N/A   Overcast
7:14 PM 46.4 °F - 42.8 °F 87% 29.81 in 10.0 mi Calm Calm - N/A   Overcast
7:52 PM 46.0 °F - 43.0 °F 89% 29.81 in 10.0 mi Calm Calm - N/A   Overcast
8:52 PM 46.0 °F - 43.0 °F 89% 29.81 in 10.0 mi Calm Calm - N/A   Overcast
9:24 PM 46.4 °F - 42.8 °F 87% 29.79 in 10.0 mi Calm Calm - N/A   Overcast
9:52 PM 46.9 °F - 43.0 °F 86% 29.82 in 10.0 mi Calm Calm - N/A   Overcast
10:52 PM 46.9 °F - 43.0 °F 86% 29.80 in 10.0 mi Calm Calm - N/A   Overcast
11:52 PM 46.9 °F - 43.0 °F 86% 29.78 in 9.0 mi Calm Calm - N/A   Overcast